Location: Ward Pound Ridge Reservation
(41.2500°N, 73.6000°W)
Time: 22:15:10
(UTC-04:00)

Envisat - Pass Details

Date: 10 October 2017
Orbit: 764 x 766 km, 98.2° (Epoch: 23 October)

Event Time Altitude Azimuth Distance (km) Brightness Sun altitude
Exits shadow 19:27:28 18° 77° (ENE) 1,810 4.3 -13.3°
Maximum altitude 19:28:22 19° 63° (ENE) 1,770 4.4 -13.5°
Drops below altitude 10° 19:31:50 10° 20° (NNE) 2,310 5.3 -14.1°
Sets 19:34:45 0° 3° (N) 3,241 6.3 -14.7°
